logo
Rechercher aéroport 
image banner adimage banner adimage banner ad
image banner ad

OPSK - Sukkur/Begum Nusrat Bhutto Airport

Situé à Sukkur, Pakistan

ICAO - OPSK, IATA - SKZ

Données fournies par Airmate  

Information générale

Coordonnées: N27°43'19" E68°47'31"
Élévation : 196 feet MSL.
 
Voir autres Aéroports à Sindh

Données opérationnelles

Special qualification required
Heure actuelle UTC:
Heure actuelle locale:
Météo
METAR: OPSK 241900Z 00000KT 4000 HZ NSC 33/24 Q0995 NOSIG
TAF: TAF OPSK 241700Z 2418/2518 14005KT 4000 HZ NSC FM250600 14008G18KT 5000 HZ FEW030 SCT100
Voir NOTAMs / SUP AIP / TFR affectant cet aéroport [VIEW]
Fréquences de communication: [VIEW]

Pistes:

Identifiant RWYQFULongueur (ft)Largeur (ft)SurfaceLDA (ft)
14141°899998ASP
32321°899998ASP

Coordonnées de l'aéroport

Adresse: Sukkur Pakistan

Vue satellite de OPSK